GW3251 Weather Reports


Display with metric or nautical units.
time (UTC)temp
F
wind
direction
speed
MPH
gust
MPH
rain 1hr
in
rain 24hr
in
rain mn
in
humidity
%
barometer
mb
20260505050538 69 0 0.0 11.0 0.00 0.00 0.00 87 1010.0
20260505041548 70 0 1.0 11.0 0.00 0.00 0.00 84 1010.1
20260505041038 70 0 0.0 7.0 0.00 0.00 0.00 84 1010.2
20260505040538 70 0 0.0 11.0 0.00 0.00 0.00 84 1010.2
20260505040049 71 0 0.0 11.0 0.00 0.00 0.00 84 1010.2
20260505035539 71 0 0.0 11.0 0.00 0.00 0.00 83 1010.1
20260505035041 71 211 0.0 11.0 0.00 0.00 0.00 83 1010.1
20260505034546 71 184 2.0 11.0 0.00 0.00 0.00 83 1009.9
20260505034038 71 0 0.0 7.0 0.00 0.00 0.00 83 1010.0
20260505033540 71 0 0.0 11.0 0.00 0.00 0.00 83 1010.1
20260505033105 71 0 0.0 13.0 0.00 0.00 0.00 83 1010.1
20260505032537 71 0 1.0 13.0 0.00 0.00 0.00 83 1010.1
20260505032038 71 0 1.0 15.0 0.00 0.00 0.00 82 1010.1
20260505031549 71 0 0.0 15.0 0.00 0.00 0.00 82 1010.0
20260505031040 72 200 0.0 13.0 0.00 0.00 0.00 82 1010.0
20260505030538 72 202 1.0 13.0 0.00 0.00 0.00 82 1009.9
20260505030046 72 204 1.0 12.0 0.00 0.00 0.00 82 1010.1
20260505025538 72 0 1.0 13.0 0.00 0.00 0.00 82 1009.9
20260505025040 72 0 0.0 13.0 0.00 0.00 0.00 82 1009.9
20260505024547 72 155 0.0 10.0 0.00 0.00 0.00 81 1010.0
20260505024038 72 0 0.0 11.0 0.00 0.00 0.00 81 1009.8
20260505023538 72 0 1.0 12.0 0.00 0.00 0.00 81 1009.7
20260505023059 72 203 1.0 12.0 0.00 0.00 0.00 82 1009.8
20260505022538 72 0 0.0 10.0 0.00 0.00 0.00 81 1009.8
20260505022040 72 0 0.0 10.0 0.00 0.00 0.00 81 1009.8
20260505021552 72 0 0.0 1.0 0.00 0.00 0.00 81 1009.7
20260505021038 72 0 0.0 6.0 0.00 0.00 0.00 81 1009.7
20260505020538 73 0 0.0 6.0 0.00 0.00 0.00 80 1009.6
20260505020051 73 0 0.0 10.0 0.00 0.00 0.00 80 1009.6
20260505015538 73 0 0.0 10.0 0.00 0.00 0.00 79 1009.4
20260505015040 73 0 0.0 6.0 0.00 0.00 0.00 79 1009.4
20260505014545 74 0 0.0 4.0 0.00 0.00 0.00 79 1009.4
20260505014037 74 0 0.0 10.0 0.00 0.00 0.00 78 1009.3
20260505013537 74 0 0.0 10.0 0.00 0.00 0.00 78 1009.4
20260505013045 74 0 0.0 10.0 0.00 0.00 0.00 78 1009.4
20260505012538 74 0 0.0 9.0 0.00 0.00 0.00 77 1009.4
20260505012038 74 0 0.0 11.0 0.00 0.00 0.00 77 1009.4
20260505011544 75 0 0.0 13.0 0.00 0.00 0.00 77 1009.4
20260505011038 75 0 0.0 13.0 0.00 0.00 0.00 77 1009.3
20260505010538 75 0 1.0 14.0 0.00 0.00 0.00 76 1009.3
20260505010044 75 0 0.0 14.0 0.00 0.00 0.00 76 1009.1
20260505005538 75 0 1.0 14.0 0.00 0.00 0.00 75 1009.4
20260505005038 75 0 1.0 12.0 0.00 0.00 0.00 75 1009.1
20260505004550 76 170 0.0 10.0 0.00 0.00 0.00 75 1009.3
20260505004037 76 0 0.0 9.0 0.00 0.00 0.00 75 1009.3
20260505003537 76 0 0.0 9.0 0.00 0.00 0.00 75 1009.2
20260505003048 76 0 0.0 6.0 0.00 0.00 0.00 75 1009.4
20260505002537 76 0 0.0 6.0 0.00 0.00 0.00 74 1009.5
20260505002037 77 0 0.0 6.0 0.00 0.00 0.00 74 1009.6
20260505001545 77 0 0.0 5.0 0.00 0.00 0.00 74 1009.7
20260505001038 77 0 0.0 5.0 0.00 0.00 0.00 73 1009.5
20260505000541 77 0 0.0 15.0 0.00 0.00 0.00 73 1009.5
20260505000047 77 0 0.0 15.0 0.00 0.00 0.00 73 1009.5
20260504235538 77 0 0.0 12.0 0.00 0.00 0.00 72 1009.6
20260504235039 78 0 1.0 14.0 0.00 0.00 0.00 72 1009.5
20260504234614 78 157 0.0 14.0 0.00 0.00 0.00 71 1009.7
20260504234038 78 0 1.0 14.0 0.00 0.00 0.00 71 1009.5
20260504233538 78 218 1.0 17.0 0.00 0.00 0.00 71 1009.6
20260504233051 79 174 1.0 17.0 0.00 0.00 0.00 71 1009.7
20260504232539 79 0 0.0 13.0 0.00 0.00 0.00 69 1009.6
20260504232038 79 0 2.0 13.0 0.00 0.00 0.00 70 1009.8
20260504231554 79 0 1.0 17.0 0.00 0.00 0.00 68 1009.6
20260504231038 79 0 1.0 17.0 0.00 0.00 0.00 67 1009.7
20260504230538 80 0 1.0 17.0 0.00 0.00 0.00 67 1009.9
20260504230049 80 133 0.0 15.0 0.00 0.00 0.00 67 1010.0
20260504225539 80 154 0.0 12.0 0.00 0.00 0.00 69 1010.1
20260504225040 80 0 0.0 12.0 0.00 0.00 0.00 67 1010.0
20260504224600 80 177 1.0 12.0 0.00 0.00 0.00 67 1010.0
20260504224038 81 0 1.0 11.0 0.00 0.00 0.00 66 1010.0
20260504223538 81 0 0.0 10.0 0.00 0.00 0.00 66 1010.2
20260504223054 81 198 0.0 10.0 0.00 0.00 0.00 65 1010.2
20260504222539 81 0 0.0 10.0 0.00 0.00 0.00 65 1010.0
20260504222037 81 184 1.0 10.0 0.00 0.00 0.00 65 1010.0
20260504221604 81 0 0.0 13.0 0.00 0.00 0.00 67 1010.3
20260504221038 82 0 1.0 14.0 0.00 0.00 0.00 65 1010.3
20260504220538 82 0 0.0 14.0 0.00 0.00 0.00 64 1010.3
20260504220053 83 0 1.0 13.0 0.00 0.00 0.00 63 1010.3
20260504215538 82 0 1.0 12.0 0.00 0.00 0.00 65 1010.4
20260504215038 80 185 0.0 10.0 0.00 0.00 0.00 67 1010.4
20260504214553 80 0 0.0 10.0 0.00 0.00 0.00 66 1010.6
20260504214038 80 177 0.0 11.0 0.00 0.00 0.00 67 1010.6
20260504213538 80 189 1.0 11.0 0.00 0.00 0.00 68 1010.8
20260504213101 80 155 1.0 11.0 0.00 0.00 0.00 66 1010.9
20260504212538 81 0 0.0 16.0 0.00 0.00 0.00 64 1011.0
20260504212041 82 209 0.0 16.0 0.00 0.00 0.00 64 1010.9
20260504211550 83 0 0.0 12.0 0.00 0.00 0.00 65 1011.2
20260504211038 82 0 0.0 14.0 0.00 0.00 0.00 65 1011.2
20260504210538 82 0 4.0 14.0 0.00 0.00 0.00 61 1011.3
20260504210057 84 178 1.0 13.0 0.00 0.00 0.00 64 1011.3
20260504205539 83 0 1.0 12.0 0.00 0.00 0.00 63 1011.6
20260504205041 81 0 1.0 12.0 0.00 0.00 0.00 64 1011.7
20260504204622 82 0 0.0 9.0 0.00 0.00 0.00 63 1011.8
20260504204037 82 0 0.0 9.0 0.00 0.00 0.00 63 1011.8
20260504203542 82 0 0.0 13.0 0.00 0.00 0.00 64 1011.9
20260504203047 82 0 0.0 13.0 0.00 0.00 0.00 62 1011.9
20260504202538 83 0 1.0 12.0 0.00 0.00 0.00 63 1011.9
20260504202042 83 0 0.0 10.0 0.00 0.00 0.00 61 1012.1
20260504201545 81 0 1.0 12.0 0.00 0.00 0.00 60 1012.1
20260504201039 82 0 2.0 12.0 0.00 0.00 0.00 63 1012.1
20260504200538 81 0 2.0 12.0 0.00 0.00 0.00 61 1012.3
20260504200050 82 0 1.0 12.0 0.00 0.00 0.00 61 1012.4
20260504195538 83 236 0.0 13.0 0.00 0.00 0.00 60 1012.5
20260504195041 84 0 0.0 15.0 0.00 0.00 0.00 59 1012.7
20260504194552 83 0 1.0 15.0 0.00 0.00 0.00 62 1012.8
20260504194038 82 110 0.0 11.0 0.00 0.00 0.00 62 1012.9
20260504193537 81 0 1.0 11.0 0.00 0.00 0.00 60 1012.9
20260504193046 83 0 0.0 14.0 0.00 0.00 0.00 60 1012.9
20260504192538 82 0 0.0 16.0 0.00 0.00 0.00 62 1013.0
20260504192038 82 0 1.0 16.0 0.00 0.00 0.00 61 1012.9
20260504191549 84 0 0.0 14.0 0.00 0.00 0.00 60 1012.9
20260504191038 82 0 0.0 17.0 0.00 0.00 0.00 64 1013.0
20260504190538 81 0 2.0 17.0 0.00 0.00 0.00 62 1013.1
20260504190056 81 0 0.0 12.0 0.00 0.00 0.00 60 1013.3
20260504185538 83 0 3.0 13.0 0.00 0.00 0.00 56 1013.5
20260504185038 84 0 1.0 13.0 0.00 0.00 0.00 58 1013.4
20260504184601 83 215 1.0 10.0 0.00 0.00 0.00 60 1013.7
20260504184038 82 0 1.0 10.0 0.00 0.00 0.00 60 1013.7
20260504183538 82 163 1.0 10.0 0.00 0.00 0.00 59 1013.7
20260504183056 82 0 1.0 10.0 0.00 0.00 0.00 58 1013.8
20260504182541 81 180 1.0 12.0 0.00 0.00 0.00 61 1013.9
20260504182038 81 195 1.0 12.0 0.00 0.00 0.00 61 1014.0
20260504181551 82 0 4.0 12.0 0.00 0.00 0.00 59 1013.9
20260504181038 82 0 0.0 12.0 0.00 0.00 0.00 61 1014.2
20260504180537 82 163 1.0 12.0 0.00 0.00 0.00 58 1014.2
20260504180051 82 0 0.0 12.0 0.00 0.00 0.00 62 1014.2
20260504175537 82 192 3.0 14.0 0.00 0.00 0.00 62 1014.2
20260504175042 81 0 0.0 14.0 0.00 0.00 0.00 62 1014.2
20260504174549 80 217 2.0 14.0 0.00 0.00 0.00 62 1014.3
20260504174038 81 0 2.0 12.0 0.00 0.00 0.00 59 1014.4
20260504173538 80 0 0.0 14.0 0.00 0.00 0.00 62 1014.3
20260504173048 79 0 0.0 14.0 0.00 0.00 0.00 62 1014.5
20260504172538 79 0 3.0 14.0 0.00 0.00 0.00 63 1014.5
20260504172038 80 190 3.0 16.0 0.00 0.00 0.00 62 1014.6
20260504171549 80 0 3.0 16.0 0.00 0.00 0.00 62 1014.6
20260504171038 79 189 2.0 14.0 0.00 0.00 0.00 61 1014.7
20260504170538 79 225 1.0 13.0 0.00 0.00 0.00 62 1014.7
20260504151039 74 0 2.0 14.0 0.00 0.00 0.00 70 1015.6
20260504150540 73 0 0.0 12.0 0.00 0.00 0.00 71 1015.6
20260504141037 68 0 1.0 11.0 0.00 0.00 0.00 77 1015.7
20260504140538 67 0 1.0 11.0 0.00 0.00 0.00 78 1015.7
20260504130538 59 0 0.0 0.0 0.00 0.00 0.00 87 1015.7
20260504110538 55 0 0.0 0.0 0.00 0.00 0.00 90 1015.2
20260504100537 56 0 0.0 0.0 0.00 0.00 0.00 89 1015.5
20260504081553 58 0 0.0 0.0 0.00 0.00 0.00 85 1015.8
20260504081037 58 0 0.0 0.0 0.00 0.00 0.00 85 1016.0
20260504080538 59 0 0.0 0.0 0.00 0.00 0.00 85 1016.1